Flag for U.S.A. Weather past 2 weeks in Brattleboro, Vermont, U.S.A.

Now
61 °F

Partly sunny.


Feels Like: 61 °F
Forecast: 52 / 77 °F
Wind: No wind

Location: Keene / Dillant

Current Time: Jul 29, 2014 at 9:27:48 PM

Latest Report: Jul 29, 2014 at 8:55 PM


Visibility: 10 mi

Pressure: 29.94 "Hg

Humidity: 68%

Dew point: 50 °F

Location of BrattleboroLocation

Historic Weather in Brattleboro — Graph

°F

Brattleboro temperature yesterday

Maximum temperature yesterday: 81 °F (at 3:35 PM)
Minimum temperature yesterday: 63 °F (at 11:55 PM)
Average temperature yesterday: 69 °F

Past Weeks' High & Low Weather Summary

 TemperatureHumidityPressure
High90 °F (Jul 23, 2:35 PM)82% (Jul 17, 5:55 AM)30.30 "Hg (Jul 17, 5:55 AM)
Low52 °F (Jul 25, 4:55 AM)34% (Jul 17, 3:35 PM)29.44 "Hg (Jul 28, 4:15 PM)
Average68 °F63%29.95 "Hg
* Reported Jul 14 8:15 PM — Jul 29 8:35 PM, Brattleboro, Weather by CustomWeather, © 2014

Note: Actual official high and low records may vary slightly from our data, if they occured in-between our weather recording intervals... More about our weather records

Advertising

Brattleboro weather history for previous 24 hours

 ConditionsComfort  
Time TempWeatherWind HumidityBarometerVisibility
8:35 PM
Jul 29
61 °FSunny.No wind72%29.94 "Hg10 mi
7:55 PM64 °FPassing clouds.No wind68%29.93 "Hg10 mi
7:35 PM66 °FPassing clouds.No wind64%29.92 "Hg10 mi
7:15 PM66 °FSunny.No wind64%29.92 "Hg10 mi
6:55 PM70 °FSunny.No wind46%29.91 "Hg10 mi
6:35 PM72 °FPassing clouds.3 mph41%29.91 "Hg10 mi
6:15 PM72 °FOvercast.No wind44%29.90 "Hg10 mi
5:55 PM72 °FPartly sunny.No wind44%29.90 "Hg10 mi
5:35 PM70 °FPartly sunny.No wind46%29.90 "Hg10 mi
5:15 PM72 °FPassing clouds.3 mph44%29.89 "Hg10 mi
4:55 PM72 °FPartly sunny.No wind44%29.88 "Hg10 mi
4:35 PM72 °FScattered clouds.5 mph44%29.88 "Hg10 mi
4:15 PM72 °FPassing clouds.7 mph41%29.87 "Hg10 mi
3:55 PM72 °FSunny.3 mph41%29.86 "Hg10 mi
3:35 PM72 °FScattered clouds.7 mph44%29.86 "Hg10 mi
3:15 PM72 °FBroken clouds.6 mph41%29.85 "Hg10 mi
2:55 PM72 °FBroken clouds.8 mph41%29.85 "Hg10 mi
2:35 PM72 °FMostly cloudy.7 mph44%29.85 "Hg10 mi
2:15 PM72 °FPartly sunny.8 mph41%29.84 "Hg10 mi
1:55 PM72 °FPartly sunny.7 mph44%29.84 "Hg10 mi
1:35 PM72 °FPartly sunny.3 mph41%29.84 "Hg10 mi
1:15 PM72 °FPassing clouds.3 mph41%29.83 "Hg10 mi
12:55 PM70 °FPartly sunny.7 mph43%29.83 "Hg10 mi
12:35 PM70 °FBroken clouds.12 mph46%29.83 "Hg10 mi
12:15 PM70 °FBroken clouds.8 mph46%29.83 "Hg10 mi
11:55 AM70 °FScattered clouds.7 mph46%29.83 "Hg10 mi
11:35 AM68 °FScattered clouds.8 mph49%29.82 "Hg10 mi
11:15 AM68 °FPartly sunny.8 mph49%29.82 "Hg10 mi
10:55 AM66 °FBroken clouds.7 mph52%29.82 "Hg10 mi
10:35 AM66 °FPassing clouds.9 mph52%29.82 "Hg10 mi
10:15 AM66 °FPartly sunny.3 mph49%29.81 "Hg10 mi
9:55 AM66 °FPartly sunny.10 mph52%29.81 "Hg10 mi
9:35 AM66 °FBroken clouds.7 mph52%29.81 "Hg10 mi
9:15 AM64 °FPartly sunny.No wind56%29.81 "Hg10 mi
8:55 AM64 °FBroken clouds.6 mph56%29.81 "Hg10 mi
8:35 AM64 °FMore clouds than sun.3 mph56%29.80 "Hg10 mi
8:15 AM63 °FPartly sunny.6 mph59%29.79 "Hg10 mi
7:55 AM63 °FScattered clouds.No wind64%29.78 "Hg10 mi
7:35 AM61 °FSunny.3 mph68%29.78 "Hg10 mi
7:15 AM59 °FSunny.3 mph68%29.78 "Hg10 mi
6:55 AM57 °FSunny.No wind72%29.76 "Hg10 mi
6:35 AM57 °FClear.No wind72%29.75 "Hg10 mi
6:15 AM57 °FPassing clouds.No wind72%29.74 "Hg10 mi
5:55 AM57 °FOvercast.3 mph72%29.73 "Hg10 mi
5:35 AM57 °FOvercast.3 mph72%29.73 "Hg10 mi
5:15 AM59 °FPassing clouds.No wind68%29.73 "Hg10 mi
4:55 AM59 °FPassing clouds.6 mph68%29.72 "Hg10 mi
4:35 AM59 °FPassing clouds.6 mph68%29.71 "Hg10 mi
4:15 AM59 °FPassing clouds.No wind68%29.70 "Hg10 mi
3:55 AM61 °FPassing clouds.No wind63%29.69 "Hg10 mi
3:35 AM61 °FPassing clouds.No wind63%29.69 "Hg10 mi
3:15 AM61 °FPassing clouds.No wind68%29.68 "Hg10 mi
2:55 AM61 °FOvercast.3 mph68%29.67 "Hg10 mi
2:35 AM61 °FPassing clouds.5 mph72%29.66 "Hg10 mi
2:15 AM63 °FPassing clouds.8 mph68%29.65 "Hg10 mi
1:55 AM63 °FOvercast.7 mph68%29.64 "Hg10 mi
1:35 AM63 °FOvercast.6 mph68%29.63 "Hg10 mi
1:15 AM63 °FOvercast.7 mph68%29.62 "Hg10 mi
12:55 AM63 °FOvercast.3 mph73%29.62 "Hg10 mi
12:35 AM63 °FOvercast.No wind73%29.61 "Hg10 mi
12:15 AM63 °FPassing clouds.No wind68%29.61 "Hg10 mi
11:55 PM
Jul 28
63 °FPassing clouds.No wind68%29.60 "Hg10 mi
11:35 PM64 °FPassing clouds.No wind68%29.60 "Hg10 mi
10:55 PM64 °FPartly cloudy.No wind73%29.58 "Hg10 mi
10:35 PM66 °FPartly cloudy.10 mph68%29.57 "Hg9 mi
10:15 PM64 °FPassing clouds.6 mph73%29.56 "Hg10 mi
9:55 PM66 °FPassing clouds.5 mph68%29.55 "Hg10 mi
9:35 PM66 °FMostly cloudy.3 mph73%29.55 "Hg10 mi
9:15 PM66 °FMostly cloudy.7 mph73%29.55 "Hg10 mi
Weather by CustomWeather, © 2014

See weather overviewHow to use our weather pages